Hourly Weather Rangpur

Today, 27 September, Sunday

Time Temperature Precipitation Wind Pressure Humidity
00:00 +27°C° 0 mm 3 mps 750 mmHg 97%
01:00 +27°C° 1.3 mm 3 mps 749 mmHg 97%
02:00 +27°C° 1.3 mm 3 mps 749 mmHg 97%
03:00 +27°C° 1.3 mm 2 mps 749 mmHg 97%
04:00 +27°C° 0.9 mm 3 mps 749 mmHg 96%
05:00 +27°C° 0.9 mm 3 mps 749 mmHg 96%
06:00 +27°C° 0 mm 2 mps 750 mmHg 93%
07:00 +27°C° 0.6 mm 3 mps 750 mmHg 92%
08:00 +28°C° 0.6 mm 3 mps 751 mmHg 92%
09:00 +28°C° 0.6 mm 3 mps 751 mmHg 91%
10:00 +29°C° 0.3 mm 3 mps 751 mmHg 89%
11:00 +29°C° 0.3 mm 3 mps 750 mmHg 87%
12:00 +30°C° 0.3 mm 2 mps 750 mmHg 86%
13:00 +31°C° 0.2 mm 2 mps 749 mmHg 82%
14:00 +31°C° 0.2 mm 2 mps 749 mmHg 78%
15:00 +32°C° 0.2 mm 2 mps 748 mmHg 74%
16:00 +31°C° 0.3 mm 2 mps 748 mmHg 78%
17:00 +30°C° 0.3 mm 2 mps 748 mmHg 81%
18:00 +30°C° 0.3 mm 2 mps 748 mmHg 85%
19:00 +29°C° 0.6 mm 2 mps 749 mmHg 87%
20:00 +29°C° 0.6 mm 2 mps 750 mmHg 89%
21:00 +28°C° 0.6 mm 2 mps 750 mmHg 91%
22:00 +28°C° 1.5 mm 2 mps 750 mmHg 91%
23:00 +28°C° 1.5 mm 2 mps 750 mmHg 92%

Tomorrow, 28 September, Monday

Time Temperature Precipitation Wind Pressure Humidity
00:00 +28°C° 1.5 mm 2 mps 751 mmHg 92%
01:00 +27°C° 0.5 mm 2 mps 750 mmHg 92%
02:00 +27°C° 0.5 mm 2 mps 750 mmHg 92%
03:00 +27°C° 0.5 mm 3 mps 750 mmHg 92%
04:00 +27°C° 0 mm 3 mps 750 mmHg 93%
05:00 +27°C° 0 mm 2 mps 750 mmHg 94%
06:00 +27°C° 0 mm 2 mps 750 mmHg 94%
07:00 +28°C° 0.4 mm 3 mps 750 mmHg 91%
08:00 +29°C° 0.4 mm 3 mps 751 mmHg 87%
09:00 +30°C° 0.4 mm 3 mps 751 mmHg 84%
10:00 +31°C° 1.1 mm 3 mps 751 mmHg 80%
11:00 +33°C° 1.1 mm 3 mps 751 mmHg 75%
12:00 +34°C° 1.1 mm 2 mps 750 mmHg 71%
13:00 +34°C° 0 mm 2 mps 750 mmHg 69%
14:00 +35°C° 0 mm 2 mps 749 mmHg 68%
15:00 +34°C° 0 mm 1 mps 748 mmHg 67%
16:00 +33°C° 0.1 mm 1 mps 748 mmHg 71%
17:00 +32°C° 0.1 mm 1 mps 748 mmHg 75%
18:00 +31°C° 0.1 mm 1 mps 748 mmHg 79%
19:00 +30°C° 0 mm 1 mps 749 mmHg 81%
20:00 +30°C° 0 mm 2 mps 750 mmHg 83%
21:00 +29°C° 0 mm 2 mps 750 mmHg 85%
22:00 +29°C° 0.2 mm 2 mps 750 mmHg 86%
23:00 +29°C° 0.2 mm 1 mps 750 mmHg 86%

Day after tomorrow, 29 September, Tuesday

Time Temperature Precipitation Wind Pressure Humidity
00:00 +29°C° 0.2 mm 1 mps 750 mmHg 87%
01:00 +28°C° 0.1 mm 1 mps 750 mmHg 87%
02:00 +28°C° 0.1 mm 1 mps 750 mmHg 87%
03:00 +28°C° 0.1 mm 1 mps 749 mmHg 88%
04:00 +28°C° 0 mm 2 mps 749 mmHg 88%
05:00 +28°C° 0 mm 2 mps 749 mmHg 89%
06:00 +27°C° 0 mm 2 mps 749 mmHg 90%
07:00 +29°C° 0.1 mm 2 mps 750 mmHg 87%
08:00 +30°C° 0.1 mm 2 mps 750 mmHg 83%
09:00 +31°C° 0.1 mm 2 mps 751 mmHg 80%
10:00 +32°C° 0.4 mm 2 mps 750 mmHg 76%
11:00 +34°C° 0.4 mm 2 mps 750 mmHg 72%
12:00 +35°C° 0.4 mm 2 mps 750 mmHg 68%
13:00 +34°C° 0.3 mm 1 mps 749 mmHg 68%
14:00 +34°C° 0.3 mm 1 mps 748 mmHg 68%
15:00 +34°C° 0.3 mm 1 mps 747 mmHg 67%
16:00 +33°C° 0.1 mm 1 mps 747 mmHg 71%
17:00 +32°C° 0.1 mm 1 mps 748 mmHg 74%
18:00 +29°C° 0.1 mm 0 mps 748 mmHg 78%
19:00 +30°C° 0 mm 1 mps 748 mmHg 79%
20:00 +30°C° 0 mm 1 mps 749 mmHg 80%
21:00 +30°C° 0 mm 1 mps 750 mmHg 81%
22:00 +30°C° 0 mm 1 mps 749 mmHg 82%
23:00 +29°C° 0 mm 1 mps 749 mmHg 84%

30 September, Wednesday

Time Temperature Precipitation Wind Pressure Humidity
00:00 +29°C° 0 mm 1 mps 749 mmHg 85%
01:00 +29°C° 0 mm 1 mps 749 mmHg 86%
02:00 +29°C° 0 mm 1 mps 749 mmHg 87%
03:00 +26°C° 0 mm 0 mps 748 mmHg 88%
04:00 +28°C° 0.1 mm 1 mps 749 mmHg 89%
05:00 +28°C° 0.1 mm 1 mps 749 mmHg 89%
06:00 +28°C° 0.1 mm 1 mps 749 mmHg 90%
07:00 +29°C° 0.2 mm 1 mps 749 mmHg 87%
08:00 +30°C° 0.2 mm 2 mps 750 mmHg 83%
09:00 +31°C° 0.2 mm 2 mps 750 mmHg 79%
10:00 +32°C° 0.2 mm 2 mps 750 mmHg 75%
11:00 +34°C° 0.2 mm 2 mps 749 mmHg 70%
12:00 +34°C° 0.2 mm 1 mps 749 mmHg 65%
13:00 +35°C° 0.2 mm 1 mps 748 mmHg 64%
14:00 +35°C° 0.2 mm 1 mps 748 mmHg 63%
15:00 +33°C° 0.2 mm 0 mps 747 mmHg 62%
16:00 +32°C° 0.1 mm 0 mps 747 mmHg 66%
17:00 +31°C° 0.1 mm 0 mps 747 mmHg 70%
18:00 +30°C° 0.1 mm 0 mps 747 mmHg 74%
19:00 +31°C° 0.5 mm 1 mps 748 mmHg 78%
20:00 +30°C° 0.5 mm 1 mps 748 mmHg 81%
21:00 +30°C° 0.5 mm 1 mps 749 mmHg 85%
22:00 +30°C° 0.5 mm 1 mps 749 mmHg 86%
23:00 +29°C° 0.5 mm 1 mps 749 mmHg 86%

1 October, Thursday

Time Temperature Precipitation Wind Pressure Humidity
00:00 +29°C° 0.5 mm 1 mps 749 mmHg 87%
01:00 +29°C° 0.2 mm 1 mps 748 mmHg 87%
02:00 +27°C° 0.2 mm 0 mps 748 mmHg 87%
03:00 +27°C° 0.2 mm 0 mps 747 mmHg 87%
04:00 +27°C° 0 mm 0 mps 748 mmHg 87%
05:00 +27°C° 0 mm 0 mps 748 mmHg 88%
06:00 +26°C° 0 mm 0 mps 748 mmHg 88%
07:00 +30°C° 0.3 mm 1 mps 748 mmHg 85%
08:00 +31°C° 0.3 mm 1 mps 749 mmHg 81%
09:00 +32°C° 0.3 mm 2 mps 749 mmHg 78%
10:00 +34°C° 0.7 mm 2 mps 749 mmHg 73%
11:00 +33°C° 0.7 mm 1 mps 749 mmHg 69%
12:00 +34°C° 0.7 mm 1 mps 748 mmHg 64%
13:00 +34°C° 0 mm 1 mps 748 mmHg 63%
14:00 +34°C° 0 mm 1 mps 747 mmHg 62%
15:00 +35°C° 0 mm 1 mps 746 mmHg 62%
16:00 +34°C° 0 mm 1 mps 746 mmHg 65%
17:00 +33°C° 0 mm 1 mps 746 mmHg 69%
18:00 +32°C° 0 mm 1 mps 746 mmHg 73%
19:00 +31°C° 0.1 mm 1 mps 747 mmHg 75%
20:00 +29°C° 0.1 mm 0 mps 748 mmHg 77%
21:00 +29°C° 0.1 mm 0 mps 748 mmHg 79%
22:00 +28°C° 0.1 mm 0 mps 748 mmHg 80%
23:00 +30°C° 0.1 mm 1 mps 748 mmHg 81%

2 October, Friday

Time Temperature Precipitation Wind Pressure Humidity
00:00 +30°C° 0.1 mm 1 mps 748 mmHg 82%
01:00 +29°C° 0 mm 1 mps 748 mmHg 83%
02:00 +29°C° 0 mm 1 mps 748 mmHg 84%
03:00 +29°C° 0 mm 1 mps 747 mmHg 85%
04:00 +29°C° 0 mm 1 mps 747 mmHg 85%
05:00 +28°C° 0 mm 1 mps 747 mmHg 86%
06:00 +28°C° 0 mm 1 mps 747 mmHg 87%
07:00 +29°C° 0 mm 1 mps 748 mmHg 83%
08:00 +31°C° 0 mm 1 mps 748 mmHg 79%
09:00 +32°C° 0 mm 2 mps 749 mmHg 75%
10:00 +33°C° 0 mm 1 mps 749 mmHg 71%
11:00 +34°C° 0 mm 1 mps 748 mmHg 67%
12:00 +34°C° 0 mm 1 mps 748 mmHg 63%
13:00 +35°C° 0.1 mm 1 mps 748 mmHg 63%
14:00 +35°C° 0.1 mm 1 mps 747 mmHg 62%
15:00 +35°C° 0.1 mm 1 mps 747 mmHg 62%
16:00 +33°C° 1.2 mm 1 mps 747 mmHg 67%
17:00 +32°C° 1.2 mm 1 mps 747 mmHg 72%
18:00 +31°C° 1.2 mm 1 mps 747 mmHg 78%
19:00 +31°C° 0.2 mm 1 mps 748 mmHg 77%
20:00 +30°C° 0.2 mm 1 mps 748 mmHg 77%
21:00 +28°C° 0.2 mm 0 mps 749 mmHg 77%
22:00 +30°C° 0 mm 1 mps 749 mmHg 77%
23:00 +30°C° 0 mm 1 mps 749 mmHg 78%
Show more